Regional Weather Roundup
Issued by NWS

Home | Current Version | Previous Version | Text Only | Print | Product List | Glossary On
Versions: 1 2 3 4 5 6 7 8 9 10 11 12 13 14 15 16 17 18 19 20 21 22 23 24 25 26 27 28 29 30 31 32 33 34 35 36 37 38 39 40 41 42 43 44 45 46 47 48 49 50
000
ASUS43 KDTX 051610
RWRMI
MICHIGAN HOURLY REGIONAL WEATHER ROUNDUP
NATIONAL WEATHER SERVICE DETROIT/PONTIAC MI
1100 AM EST THU MAR 05 2015

NOTE: "FAIR" INDICATES FEW OR NO CLOUDS BELOW 12,000 FEET WITH NO
SIGNIFICANT WEATHER AND/OR OBSTRUCTION TO VISIBILITY.

MIZ047>049-052>055-059>063-066>070-074>076-081>083-051700-
SOUTHEAST LOWER MICHIGAN

CITY           SKY/WX    TMP DP  RH WIND       PRES   REMARKS
ADRIAN         MOSUNNY   14   1  56 N8        30.38F WCI   3
ALMA           SUNNY     10  -5  50 W3        30.43S
ANN ARBOR      MOSUNNY   14  -3  47 N5        30.37F WCI   6
BAD AXE        MOSUNNY    8  -2  64 W9        30.40S WCI  -6
CARO           MOSUNNY    9  -4  54 W5        30.41S WCI   1
DETROIT CITY   MOSUNNY   15  -4  42 N8        30.39F WCI   4
DETROIT        CLOUDY    14  -3  47 NW8       30.39F WCI   3
FLINT          MOSUNNY   11  -7  44 W7        30.41S WCI   0
GROSSE ILE     MOSUNNY   16   0  48 N7        30.37F WCI   6
HILLSDALE      MOSUNNY   13   1  59 N5        30.34F WCI   5
HOWELL         PTSUNNY   11  -6  45 W5        30.38F WCI   3

CITY           SKY/WX    TMP DP  RH WIND       PRES   REMARKS
JACKSON        MOSUNNY   12  -3  51 VRB3      30.37F
LAMBERTVILLE   MOSUNNY   18   3  53 N5        30.38F WCI  11
LANSING        MOSUNNY    9  -4  55 CALM      30.41F
LAPEER         FAIR       8  -9  44 NW7       30.39F WCI  -3
MASON          MOSUNNY    8  -7  48 CALM      30.40F
MONROE         MOSUNNY   14   1  57 N6        30.37F WCI   5
MT. CLEMENS    PTSUNNY   11  -6  45 NW10      30.38S WCI  -2
PONTIAC        PTSUNNY   10  -7  46 NW9       30.36F WCI  -3
PORT HOPE        N/A     11   0  61 NW10      30.38R WCI  -3
PORT HURON     MOSUNNY    9  -8  47 W8        30.40F WCI  -4
TRI CITIES     SUNNY      9  -7  48 W3        30.42F
TROY           MOSUNNY   14  -7  38 NW6       30.40F WCI   5
SAGINAW HB     MOSUNNY   12  -6  44 W6        30.42F WCI   3
$$
MIZ043>046-050>051-056>058-064>065-071>073-077>080-051700-
SOUTHWEST LOWER MICHIGAN

CITY           SKY/WX    TMP DP  RH WIND       PRES   REMARKS
BATTLE CREEK   SUNNY     13   0  56 CALM      30.39F
BENTON HARBOR  MOSUNNY   15   3  59 CALM      30.42F
BIG RAPIDS     SUNNY      9  -1  64 CALM      30.38F
COLDWATER      FAIR      12   1  62 CALM      30.38S
FREMONT        FAIR      11  -4  50 CALM      30.42S
HOLLAND        SUNNY     13  -1  54 E5        30.43F WCI   5
GRAND RAPIDS   MOSUNNY   12  -4  48 CALM      30.42F
IONIA          FAIR       9  -3  56 S3        30.40F
KALAMAZOO      SUNNY     13   1  59 CALM      30.40F
LUDINGTON      LGT SNOW  13   7  75 SW5       30.43S WCI   5
MARSHALL       SUNNY     11  -2  56 CALM      30.39S
MOUNT PLEASANT SUNNY      9  -5  51 CALM      30.41S
MUSKEGON       MOSUNNY   13   0  56 CALM      30.44S
SOUTH HAVEN    SUNNY     16   2  54 CALM      30.42F
$$
MIZ016>042-051700-
NORTHERN LOWER MICHIGAN

CITY           SKY/WX    TMP DP  RH WIND       PRES   REMARKS
ALPENA         MIX PCPN   9  -4  55 NW9       30.38F WCI  -4
BEAVER ISLAND  SUNNY      7  -3  64 CALM      30.41S
BELLAIRE       SUNNY      8  -2  65 CALM      30.43F
CADILLAC       SUNNY      6  -4  64 CALM      30.33S
CHARLEVOIX     SUNNY      5  -2  72 CALM      30.44S
FRANKFORT      LGT SNOW  10   4  78 CALM      30.43R
GAYLORD        SUNNY      5  -4  66 W8        30.32S WCI  -8
GRAYLING       SUNNY      8  -5  56 NW9G17    30.34F WCI  -5
HARBOR SPRINGS SUNNY      2  -5  72 SW6       30.41R WCI -10
HOUGHTON LAKE  FAIR       5  -6  60 SW7       30.36S WCI  -7
MANISTEE       CLOUDY    10   1  67 SW3       30.43S VSB 1
OSCODA         MOSUNNY   11  -5  49 NW5       30.39S WCI   3
PELLSTON       SUNNY      6  -5  60 NW10      30.41R WCI  -9
ROGERS CITY    MOSUNNY    9  -2  61 W6        30.40S WCI  -1
TRAVERSE CITY  MOSUNNY    8  -1  66 NW5       30.41F WCI   0
$$
MIZ007>008-015-051700-
EASTERN UPPER MICHIGAN

CITY           SKY/WX    TMP DP  RH WIND       PRES   REMARKS
KINROSS        SUNNY      9  -4  56 W7        30.37S WCI  -3
MACKINAC ISLAN SUNNY      4  -5  66 SW5       30.39S WCI  -5
NEWBERRY       SUNNY      5  -1  76 W6        30.37S WCI  -6
S. S. MARIE    FLURRIES   5  -5  63 CALM      30.38S
MUNISING         N/A      9  -7  48 NW10      30.40S WCI  -5
$$
MIZ004>006-011>014-085-051700-
CENTRAL UPPER MICHIGAN

CITY           SKY/WX    TMP DP  RH WIND       PRES   REMARKS
MANISTIQUE     SUNNY      9  -3  58 W7        30.40S WCI  -2
ESCANABA       SUNNY      5  -2  72 SE5       30.44S WCI  -4
MENOMINEE      SUNNY      7  -6  56 NW5       30.44F WCI  -2
SAWYER-GWINN   SUNNY      5   1  85 NW5       30.34R WCI  -4
$$
MIZ001>003-009>011-084-051700-
WESTERN UPPER MICHIGAN

CITY           SKY/WX    TMP DP  RH WIND       PRES   REMARKS
IRON MOUNTAIN  SUNNY      4  -6  63 SW7       30.36S WCI  -8
HOUGHTON       MOSUNNY    5  -2  72 W13       30.32S WCI -12
COPPER HARBOR    N/A      7  -5  57 N14       30.36S WCI -10
IRONWOOD       SUNNY      1  -8  66 W10G18    30.35S WCI -14
$$

ABBREVIATIONS USED IN REMARKS
   TC - TEMPERATURE IN CELSIUS
  WCI - WIND CHILL INDEX
   HX - HEAT INDEX
  VSB - VISIBILITY



USA.gov is the U.S. government's official web portal to all federal, state and local government web resources and services.